Location: Bun Machan
(52.1403°N, 7.3744°W)
Time: 03:03:33
(UTC+00:00)

Cosmos 1666 Rocket - Pass Details

Date: 14 July 2020
Orbit: 603 x 634 km, 82.5° (Epoch: 04 August)

Event Time Altitude Azimuth Distance (km) Brightness Sun altitude
Exits shadow 00:23:49 27° 150° (SSE) 1,202 4.5 -16.2°
Maximum altitude 00:25:49 45° 94° (E) 844 4.2 -16.2°
Drops below altitude 10° 00:29:59 10° 22° (NNE) 1,977 7.2 -16.2°
Sets 00:32:15 0° 16° (NNE) 2,882 8.5 -16.2°
